Location: Gloden
(48.4833°N, 15.3167°E)
Time: 03:02:28
(UTC+00:00)

CUTE-I - Pass Details

Date: 04 December 2022
Orbit: 809 x 824 km, 98.7° (Epoch: 30 January)

Event Time Altitude Azimuth Distance (km) Brightness Sun altitude
Rises 04:12:18 0° 26° (NNE) 3,370 ? -22.4°
Reaches altitude 10° 04:15:16 10° 42° (NE) 2,433 ? -21.9°
Maximum altitude 04:19:17 21° 91° (E) 1,772 ? -21.2°
Drops below altitude 10° 04:23:18 10° 139° (SE) 2,421 ? -20.6°
Sets 04:26:12 0° 155° (SSE) 3,348 ? -20.1°
